962  
NZUS93 KARX 130510  
HRRWXR  
 
CURRENT HOURLY OBSERVATIONS ACROSS  
MUCH OF THE UPPER MISSISSIPPI VALLEY  
NATIONAL WEATHER SERVICE LA CROSSE WI  
1200 AM CDT SAT AUG 13 2022  
 
   
..SOUTHEAST MINNESOTA
 
 
 
CITY SKY/WX TMP DP RH WIND PRES REMARKS  
ROCHESTER CLOUDY 61 55 81 S16 30.00F  
WINONA MOCLDY 63 59 88 SE7 30.03S  
AUSTIN MOCLDY 64 61 88 S7 30.00F  
ALBERT LEA PTCLDY 64 61 88 S10 29.98S  
DODGE CENTER PTCLDY 63 59 88 S9 29.99F  
PRESTON MOCLDY 60 55 81 S10 30.04S  
OWATONNA PTCLDY 66 61 82 SE16G22 29.95F  
FARIBAULT MOCLDY 68 61 77 SE10 29.95F  

 
   
..ELSEWHERE IN MINNESOTA
 
 
 
CITY SKY/WX TMP DP RH WIND PRES REMARKS  
MINNEAPOLIS CLOUDY 66 58 75 SE14 29.95F  
INTNL FALLS MOCLDY 61 58 90 CALM 30.05F  
DULUTH CLOUDY 59 57 93 SE7 30.04F  
RED WING CLOUDY 63 55 77 SE8 29.98F  
REDWOOD FALLS PTCLDY 71 67 87 S3 29.87R  
MANKATO PTCLDY 68 63 84 S10 29.93S  
WORTHINGTON PTCLDY 74 64 71 S14 29.93F  
FAIRMONT PTCLDY 69 65 86 S10 29.94S  

 
   
..SOUTHWEST WISCONSIN
 
 
 
CITY SKY/WX TMP DP RH WIND PRES REMARKS  
LA CROSSE MOCLDY 63 57 81 SE6 30.05S  
PRAIRIE DU CHI PTCLDY 64 59 85 SE3 30.07F  
BOSCOBEL MOCLDY 61 59 93 N3 30.09F  
LONE ROCK MOCLDY 60 58 92 E6 30.10F  
PLATTEVILLE MOCLDY 62 62 100 SE8 30.12F  
FORT MC COY CLOUDY 60 58 94 CALM 30.09F  
CAMP DOUGLAS CLOUDY 58 55 89 SE6 30.08F  
MAUSTON-NEW LI MOCLDY 59 56 88 SE3 30.10S  
VIROQUA N/A 59 59 100 SE9 30.08F  
WIS DELLS MOCLDY 59 54 84 SE3 30.12S  

 
   
..ELSEWHERE IN WISCONSIN
 
 
 
CITY SKY/WX TMP DP RH WIND PRES REMARKS  
MILWAUKEE CLOUDY 68 60 75 S7 30.16S  
MADISON PTCLDY 64 59 83 S6 30.13F  
GREEN BAY LGT RAIN 64 59 83 S5 30.15F  
EAU CLAIRE CLOUDY 60 55 83 SE9 30.03F  
BLACK RVR FLS MOCLDY 58 55 89 CALM 30.08S  
MEDFORD CLOUDY 56 53 87 SE6 30.08F  
WAUSAU CLOUDY 62 49 62 SE7 30.11S  
WIS RAPIDS MOCLDY 60 55 83 SE3 30.12S  
MARSHFIELD CLOUDY 58 53 84 SE8 30.09F  
RICE LAKE N/A 60 56 85 SE9 30.04F  

 
   
..NORTHEAST IOWA
 
 
 
CITY SKY/WX TMP DP RH WIND PRES REMARKS  
WATERLOO CLEAR 67 59 75 SE10 30.02F  
DUBUQUE MOCLDY 64 62 93 S13 30.11F  
DECORAH MOCLDY 61 61 100 S9G16 30.04S  
MASON CITY PTCLDY 64 62 93 S12 30.01F  
CHARLES CITY PTCLDY 63 61 94 SE10 30.03R  
OELWEIN CLOUDY 63 59 88 SE12G18 30.06S  

 
   
..ELSEWHERE IN IOWA
 
 
 
CITY SKY/WX TMP DP RH WIND PRES REMARKS  
DES MOINES PTCLDY 74 68 81 S13 30.02F  
IOWA CITY PTCLDY 65 60 84 SE5 30.10S  
FORT DODGE PTCLDY 75 68 78 S13 30.00R  
MARSHALLTOWN CLEAR 70 63 78 S10 30.03F  
CEDAR RAPIDS PTCLDY 62 60 93 SE6 30.08S  

 
   
..NORTHERN ILLINOIS
 
 
 
CITY SKY/WX TMP DP RH WIND PRES REMARKS  
CHICAGO-OHARE MOCLDY 71 57 61 S7 30.15F  
CHICAGO-MIDWAY MOCLDY 73 53 49 S7 30.15F  
MOLINE PTCLDY 64 62 93 E6 30.12S  
ROCKFORD MOCLDY 64 60 87 SE3 30.15F  
PEORIA PTCLDY 68 59 73 SE7 30.15S  

 
 
NOTE: "FAIR" INDICATES FEW OR NO CLOUDS BELOW 12,000 FEET WITH NO  
SIGNIFICANT WEATHER AND/OR OBSTRUCTIONS TO VISIBILITY. WIND  
SPEEDS ARE IN MILES-PER-HOUR.  
 
 
CLICK HERE TO GO TO PREVIOUS BULLETINS.

The Nexlab WI Page
The Nexlab IA Page
The Nexlab MN Page Main Text Page